Flag Weather past 2 weeks in Taiyuan, Shanxi, China

Now
30 °F

Ice fog.


Feels Like: 30 °F
Forecast: 35 / 43 °F
Wind: 1 mph from East

Location: Taiyuan Airport

Current Time: Nov 27, 2014 at 1:47:12 AM

Latest Report: Nov 27, 2014 at 1:00 AM


Visibility: 1 mi

Pressure: 30.07 "Hg

Humidity: 86%

Dew point: 27 °F

Location of TaiyuanLocation

Historic Weather in Taiyuan — Graph

°F

Taiyuan temperature yesterday

Maximum temperature yesterday: 46 °F (at 2:30 PM)
Minimum temperature yesterday: 32 °F (at 11:30 PM)
Average temperature yesterday: 39 °F

Past Weeks' High & Low Weather Summary

 TemperatureHumidityPressure
High55 °F (Nov 20, 1:30 PM)93% (Nov 24, 3:30 AM)30.48 "Hg (Nov 24, 3:30 AM)
Low19 °F (Nov 17, 7:00 AM)12% (Nov 12, 3:00 PM)29.92 "Hg (Nov 26, 3:00 AM)
Average38 °F51%30.23 "Hg
* Reported Midnight between Nov 11 and Nov 12 — Nov 27 12:30 AM, Taiyuan, Weather by CustomWeather, © 2014

Note: Actual official high and low records may vary slightly from our data, if they occured in-between our weather recording intervals... More about our weather records

Advertising

Taiyuan weather history for previous 24 hours

 ConditionsComfort  
Time TempWeatherWind HumidityBarometerVisibility
12:30 AM
Nov 27
30 °FIce fog.No wind86%30.07 "Hg1 mi
12:00 AM32 °FIce fog.1 mph87%30.04 "Hg1 mi
11:30 PM
Nov 26
32 °FIce fog.1 mph80%30.04 "Hg1 mi
10:30 PM34 °FFog.1 mph81%30.04 "Hg1 mi
10:00 PM34 °FFog.1 mph81%30.04 "Hg1 mi
9:30 PM34 °FFog.1 mph81%30.04 "Hg1 mi
9:00 PM36 °FHaze.1 mph75%30.04 "Hg2 mi
8:30 PM36 °FHaze.1 mph75%30.04 "Hg2 mi
8:00 PM37 °FHaze.1 mph70%30.01 "Hg2 mi
7:30 PM37 °FHaze.3 mph70%30.01 "Hg2 mi
7:00 PM39 °FHaze.6 mph65%29.98 "Hg2 mi
6:30 PM41 °FHaze.3 mph66%29.98 "Hg2 mi
6:00 PM41 °FHaze.1 mph61%29.95 "Hg2 mi
5:30 PM43 °FHaze.1 mph57%29.95 "Hg2 mi
5:00 PM43 °FHaze.No wind57%29.95 "Hg2 mi
4:30 PM45 °FHaze.1 mph53%29.95 "Hg2 mi
4:00 PM45 °FHaze.1 mph53%29.95 "Hg2 mi
3:30 PM45 °FHaze.1 mph53%29.92 "Hg2 mi
3:00 PM45 °FHaze.1 mph57%29.95 "Hg2 mi
2:30 PM46 °FHaze.1 mph53%29.95 "Hg2 mi
2:00 PM45 °FHaze.3 mph57%29.95 "Hg2 mi
1:30 PM45 °FHaze.3 mph57%29.95 "Hg2 mi
1:00 PM43 °FHaze.3 mph61%29.95 "Hg2 mi
12:30 PM43 °FHaze.1 mph61%29.95 "Hg2 mi
12:00 PM43 °FHaze.1 mph61%29.98 "Hg2 mi
11:30 AM43 °FHaze.3 mph61%29.98 "Hg2 mi
11:00 AM41 °FHaze.6 mph61%29.98 "Hg2 mi
10:30 AM41 °FHaze.6 mph66%29.98 "Hg2 mi
10:00 AM41 °FHaze.1 mph66%29.98 "Hg2 mi
9:30 AM39 °FHaze.1 mph75%29.98 "Hg2 mi
9:00 AM39 °FFog.1 mph75%29.98 "Hg2 mi
8:30 AM37 °FFog.3 mph81%29.98 "Hg1 mi
8:00 AM37 °FFog.3 mph81%29.98 "Hg1 mi
7:30 AM37 °FFog.1 mph81%29.95 "Hg1 mi
7:00 AM37 °FFog.1 mph87%29.95 "Hg1 mi
6:30 AM37 °FFog.1 mph87%29.92 "Hg1 mi
6:00 AM37 °FFog.1 mph87%29.92 "Hg1 mi
5:30 AM37 °FFog.1 mph87%29.92 "Hg1 mi
5:00 AM37 °FFog.1 mph87%29.92 "Hg1 mi
4:30 AM37 °FFog.1 mph87%29.92 "Hg1 mi
4:00 AM37 °FFog.1 mph87%29.92 "Hg1 mi
3:30 AM37 °FFog.1 mph87%29.92 "Hg1 mi
3:00 AM37 °FFog.3 mph87%29.92 "Hg1 mi
2:30 AM37 °FFog.3 mph87%29.95 "Hg1 mi
2:00 AM37 °FFog.3 mph87%29.95 "Hg1 mi
1:30 AM39 °FFog.3 mph81%29.95 "Hg1 mi
1:00 AM39 °FFog.3 mph81%29.95 "Hg1 mi
Weather by CustomWeather, © 2014

See weather overviewHow to use our weather pages